Wahpeton, MN

10:01 PM CDT on June 25, 2017 (GMT -0500)
Stern

Weather History for KBWP - December, 2012

Change the Weather History Date:

Tuesday, December 11, 2012

  Actual Average (KFFM) Record (KFFM)
Temperature  
Mean Temperature 6 °F -  
Max Temperature 12 °F 22 °F 48 °F (2011)
Min Temperature 0 °F 4 °F -23 °F (1977)
Degree Days  
Heating Degree Days 59    
Moisture  
Dew Point 3 °F    
Average Humidity 82    
Maximum Humidity 92    
Minimum Humidity 73    
Precipitation  
Precipitation 0.00 in - - ()
Sea Level Pressure  
Sea Level Pressure 29.86 in    
Wind  
Wind Speed 6 mph (NW)    
Max Wind Speed 12 mph    
Max Gust Speed 16 mph    
Visibility 10 miles    
Events      
Averages and records for this station are not official NWS values.
T = Trace of Precipitation, MM = Missing Value Source: NWS Daily Summary

Daily Weather History Graph

Daily Weather History Graph

Search for Another Location

Airport or City:

Trip Planner

Search our weather history database for the weather conditions in past years. The results will help you decide how hot, cold, wet, or windy it might be!

Date:

Astronomy

Dec. 11, 2012 Rise Set
Actual Time 7:59 AM CST 4:40 PM CST
Civil Twilight 7:25 AM CST 5:14 PM CST
Nautical Twilight 6:46 AM CST 5:52 PM CST
Astronomical Twilight 6:10 AM CST 6:29 PM CST
Moon 5:52 AM CST (12/11) 3:22 PM CST (12/11)
Length of Visible Light 9h 49m
Length of Day
8h 40m
Waning Crescent, 4% of the Moon is Illuminated
Dec 11
Waning Crescent
Dec 13
New
Dec 19
First Quarter
Dec 28
Full
Jan 4
Last Quarter

Hourly Weather History & Observations

Time (CST) Temp. Windchill Dew Point Humidity Pressure Visibility Wind Dir Wind Speed Gust Speed Precip Events Conditions
12:15 AM 1.4 °F -9.9 °F -0.4 °F 92% 29.76 in 10.0 mi South 5.8 mph - N/A   Clear
12:35 AM 3.2 °F -7.8 °F -0.4 °F 85% 29.76 in 10.0 mi WSW 5.8 mph - N/A   Clear
12:55 AM 1.4 °F -11.3 °F -4.0 °F 78% 29.75 in 10.0 mi West 6.9 mph - N/A   Clear
1:15 AM -0.4 °F -13.4 °F -4.0 °F 85% 29.75 in 10.0 mi WNW 6.9 mph - N/A   Clear
1:35 AM 1.4 °F -8.3 °F -2.2 °F 85% 29.76 in 10.0 mi West 4.6 mph - N/A   Clear
1:55 AM 1.4 °F -11.3 °F -0.4 °F 92% 29.76 in 10.0 mi West 6.9 mph - N/A   Clear
2:35 AM 3.2 °F -11.3 °F -0.4 °F 85% 29.77 in 10.0 mi WNW 9.2 mph - N/A   Clear
2:55 AM 3.2 °F -9.1 °F -0.4 °F 85% 29.77 in 10.0 mi WNW 6.9 mph - N/A   Clear
3:15 AM 3.2 °F -10.3 °F -0.4 °F 85% 29.77 in 10.0 mi WNW 8.1 mph - N/A   Clear
3:35 AM 3.2 °F -10.3 °F -0.4 °F 85% 29.78 in 10.0 mi WNW 8.1 mph - N/A   Clear
3:55 AM 1.4 °F -11.3 °F -2.2 °F 85% 29.78 in 10.0 mi West 6.9 mph - N/A   Clear
4:15 AM 3.2 °F -6.2 °F -0.4 °F 85% 29.78 in 10.0 mi West 4.6 mph - N/A   Mostly Cloudy
4:35 AM 6.8 °F -4.8 °F 3.2 °F 85% 29.79 in 10.0 mi WNW 6.9 mph - N/A   Overcast
4:55 AM 8.6 °F -1.3 °F 5.0 °F 85% 29.79 in 10.0 mi WNW 5.8 mph - N/A   Overcast
5:15 AM 8.6 °F 0.1 °F 5.0 °F 85% 29.79 in 10.0 mi WNW 4.6 mph - N/A   Overcast
5:35 AM 10.4 °F -0.4 °F 6.8 °F 85% 29.79 in 10.0 mi WNW 6.9 mph - N/A   Overcast
5:55 AM 10.4 °F 0.8 °F 6.8 °F 85% 29.79 in 10.0 mi WNW 5.8 mph - N/A   Overcast
6:15 AM 10.4 °F 2.2 °F 6.8 °F 85% 29.80 in 10.0 mi NW 4.6 mph - N/A   Overcast
6:35 AM 10.4 °F 2.2 °F 6.8 °F 85% 29.80 in 10.0 mi NW 4.6 mph - N/A   Overcast
6:55 AM 10.4 °F -0.4 °F 8.6 °F 92% 29.81 in 10.0 mi NW 6.9 mph - N/A   Overcast
7:15 AM 10.4 °F -1.5 °F 8.6 °F 92% 29.81 in 10.0 mi WNW 8.1 mph - N/A   Overcast
7:55 AM 12.2 °F -1.0 °F 8.6 °F 85% 29.82 in 7.0 mi NW 10.4 mph - N/A   Overcast
8:15 AM 10.4 °F -2.4 °F 6.8 °F 85% 29.82 in 7.0 mi NNW 9.2 mph - N/A   Overcast
8:35 AM 10.4 °F -3.3 °F 6.8 °F 85% 29.84 in 7.0 mi NNW 10.4 mph 16.1 mph N/A   Overcast
8:55 AM 10.4 °F -1.5 °F 5.0 °F 79% 29.84 in 10.0 mi NNW 8.1 mph - N/A   Overcast
9:15 AM 10.4 °F -3.3 °F 5.0 °F 79% 29.85 in 10.0 mi NW 10.4 mph - N/A   Overcast
9:35 AM 10.4 °F -3.3 °F 5.0 °F 79% 29.86 in 10.0 mi NNW 10.4 mph - N/A   Overcast
9:55 AM 10.4 °F -2.4 °F 5.0 °F 79% 29.86 in 7.0 mi NNW 9.2 mph - N/A   Overcast
10:15 AM 10.4 °F -4.1 °F 5.0 °F 79% 29.87 in 10.0 mi NNW 11.5 mph - N/A   Overcast
10:35 AM 10.4 °F -0.4 °F 5.0 °F 79% 29.88 in 10.0 mi NNW 6.9 mph - N/A   Overcast
10:55 AM 10.4 °F -3.3 °F 5.0 °F 79% 29.89 in 10.0 mi NW 10.4 mph - N/A   Overcast
11:15 AM 12.2 °F 1.7 °F 5.0 °F 73% 29.88 in 7.0 mi NNW 6.9 mph - N/A   Overcast
11:35 AM 12.2 °F -0.2 °F 5.0 °F 73% 29.88 in 5.0 mi NW 9.2 mph - N/A   Overcast
11:55 AM 10.4 °F -0.4 °F 5.0 °F 79% 29.88 in 7.0 mi NNW 6.9 mph - N/A   Overcast
12:15 PM 12.2 °F 2.9 °F 5.0 °F 73% 29.88 in 10.0 mi NNW 5.8 mph - N/A   Scattered Clouds
12:35 PM 12.2 °F 0.7 °F 5.0 °F 73% 29.88 in 10.0 mi North 8.1 mph - N/A   Clear
12:55 PM 12.2 °F 0.7 °F 5.0 °F 73% 29.88 in 10.0 mi NNW 8.1 mph - N/A   Unknown
1:15 PM 12.2 °F 2.9 °F 5.0 °F 73% 29.88 in 10.0 mi NNW 5.8 mph - N/A   Unknown
1:35 PM 12.2 °F 4.3 °F 5.0 °F 73% 29.89 in 10.0 mi NNW 4.6 mph - N/A   Unknown
1:55 PM 12.2 °F 4.3 °F 5.0 °F 73% 29.89 in 10.0 mi NNW 4.6 mph - N/A   Unknown
2:15 PM 12.2 °F 4.3 °F 5.0 °F 73% 29.89 in 10.0 mi NNW 4.6 mph - N/A   Clear
2:35 PM 12.2 °F 4.3 °F 5.0 °F 73% 29.89 in 10.0 mi NNW 4.6 mph - N/A   Clear
2:55 PM 12.2 °F 4.3 °F 5.0 °F 73% 29.89 in 10.0 mi NW 4.6 mph - N/A   Clear
3:15 PM 10.4 °F 2.2 °F 3.2 °F 73% 29.90 in 10.0 mi NW 4.6 mph - N/A   Clear
3:35 PM 10.4 °F - 3.2 °F 73% 29.90 in 10.0 mi Calm Calm - N/A   Clear
3:55 PM 10.4 °F 4.0 °F 3.2 °F 73% 29.90 in 10.0 mi North 3.5 mph - N/A   Clear
4:15 PM 10.4 °F 4.0 °F 3.2 °F 73% 29.90 in 10.0 mi North 3.5 mph - N/A   Clear
4:35 PM 8.6 °F 2.0 °F 1.4 °F 73% 29.90 in 10.0 mi ESE 3.5 mph - N/A   Clear
4:55 PM 8.6 °F - 3.2 °F 79% 29.90 in 10.0 mi Calm Calm - N/A   Clear
5:15 PM 6.8 °F -0.1 °F 3.2 °F 85% 29.90 in 10.0 mi SE 3.5 mph - N/A   Clear
5:35 PM 5.0 °F - 1.4 °F 85% 29.91 in 10.0 mi Calm Calm - N/A   Clear
5:55 PM 3.2 °F -4.2 °F 1.4 °F 92% 29.91 in 10.0 mi SE 3.5 mph - N/A   Clear
6:15 PM 3.2 °F -4.2 °F -0.4 °F 85% 29.91 in 10.0 mi ESE 3.5 mph - N/A   Clear
6:35 PM 3.2 °F -6.2 °F -0.4 °F 85% 29.91 in 10.0 mi SSE 4.6 mph - N/A   Clear
7:15 PM 1.4 °F -9.9 °F -0.4 °F 92% 29.92 in 10.0 mi SE 5.8 mph - N/A   Clear
7:35 PM 3.2 °F -7.8 °F -0.4 °F 85% 29.91 in 10.0 mi SE 5.8 mph - N/A   Clear
7:55 PM 3.2 °F -7.8 °F -0.4 °F 85% 29.91 in 10.0 mi ESE 5.8 mph - N/A   Scattered Clouds
8:15 PM 1.4 °F -8.3 °F -2.2 °F 85% 29.92 in 10.0 mi ESE 4.6 mph - N/A   Mostly Cloudy
8:35 PM 3.2 °F -7.8 °F -0.4 °F 85% 29.92 in 10.0 mi ESE 5.8 mph - N/A   Mostly Cloudy
8:55 PM 3.2 °F -7.8 °F -0.4 °F 85% 29.91 in 10.0 mi ESE 5.8 mph - N/A   Scattered Clouds
9:35 PM 1.4 °F -9.9 °F -2.2 °F 85% 29.91 in 10.0 mi SE 5.8 mph - N/A   Clear
9:55 PM 3.2 °F -7.8 °F -0.4 °F 85% 29.91 in 10.0 mi SE 5.8 mph - N/A   Clear
10:15 PM 3.2 °F -10.3 °F -0.4 °F 85% 29.91 in 10.0 mi SE 8.1 mph - N/A   Scattered Clouds
10:35 PM 3.2 °F -10.3 °F -0.4 °F 85% 29.90 in 10.0 mi SE 8.1 mph - N/A   Scattered Clouds
10:55 PM 5.0 °F -10.0 °F 1.4 °F 85% 29.90 in 10.0 mi SE 10.4 mph - N/A   Scattered Clouds
11:15 PM 5.0 °F -9.1 °F 1.4 °F 85% 29.90 in 10.0 mi SE 9.2 mph - N/A   Scattered Clouds
11:35 PM 5.0 °F -6.9 °F 3.2 °F 92% 29.91 in 10.0 mi ESE 6.9 mph - N/A   Mostly Cloudy
11:55 PM 6.8 °F -6.9 °F 3.2 °F 85% 29.90 in 10.0 mi SE 9.2 mph - N/A   Overcast